[[{"header":{"parameterUnit":"m.s-1","parameterCategory":1,"la1":30.2991,"la2":30.254,"lo1":-89.0895,"lo2":-89.0444,"dy":0.0017,"dx":0.0017,"nx":28,"ny":28,"refTime":"2026-02-07T03:00:00:Z","depth":0,"parameterNumber":2,"parameterNumberName":"U-component_of_WINDS"},"data":[0,0,0,0,0,0,0,0,0,0,0,0,0,0,0,0,0,0,0,0,0,0,0,0,0,0,0,0,0,0,0,0,0,0,0,0,0,0,0,0,0,0,0,0,0,0,0,0,0,0,0,0,0,0,0,0,0,0,-0.7623,-0.7623,0,-0.7607,-0.7607,-0.7607,-0.7598,-0.7598,-0.7598,-0.7598,-0.7582,-0.7582,-0.7581,0,0,0,0,0,0,0,0,0,0,0,0,0,-0.7646,-0.7645,-0.7623,-0.7623,-0.7623,-0.7607,-0.7607,-0.7607,-0.7598,-0.7598,-0.7598,-0.7598,-0.7582,-0.7582,-0.7581,0,0,0,0,0,0,0,0,0,0,0,0,0,-0.7633,-0.7645,-0.7623,-0.7617,-0.7616,-0.7608,-0.7607,-0.7607,-0.7598,-0.7598,-0.7598,-0.7598,-0.7582,-0.7582,-0.7581,-0.7578,0,0,-0.7579,-0.7579,0,0,0,0,0,0,0,0,-0.7634,-0.7633,-0.7618,-0.7617,-0.7616,-0.7605,-0.7609,-0.7597,-0.7598,-0.7605,-0.7598,-0.7598,-0.759,-0.7588,-0.7585,-0.7577,-0.7577,-0.7579,-0.7579,-0.7579,-0.7578,0,0,0,0,0,0,0,-0.7635,-0.7633,-0.7617,-0.7618,-0.7617,-0.7614,-0.7613,-0.7607,-0.7598,-0.7604,-0.7604,-0.7602,-0.7589,-0.7586,-0.7585,-0.7576,-0.7579,-0.7579,-0.7578,-0.7578,-0.7563,-0.7563,0,0,0,0,0,0,-0.7637,-0.7634,-0.7618,-0.7617,-0.7625,-0.7614,-0.7612,-0.7609,-0.7598,-0.7596,-0.7602,-0.7602,-0.7587,-0.7586,-0.7584,-0.7579,-0.7579,-0.7578,-0.7578,-0.7563,-0.7563,-0.7563,0,0,0,0,0,0,-0.7637,-0.7636,-0.7618,-0.7625,-0.7623,-0.7614,-0.761,-0.7608,-0.7605,-0.7596,-0.7594,-0.7601,-0.7587,-0.7585,-0.7579,-0.7579,-0.7578,-0.7577,-0.7563,-0.7563,-0.7563,-0.7569,0,0,0,0,0,0,-0.7638,-0.7636,-0.7635,-0.7625,-0.7622,-0.7614,-0.761,-0.7608,-0.7604,-0.7603,-0.7594,-0.7593,-0.7587,-0.758,-0.7579,-0.7578,-0.7577,-0.7563,-0.7563,-0.7563,-0.7569,-0.757,-0.757,0,0,0,0,0,-0.7639,-0.7638,-0.7635,-0.7633,-0.7621,-0.7614,-0.7612,-0.7606,-0.7604,-0.7603,-0.7597,-0.7593,-0.7579,-0.758,-0.7578,-0.7577,-0.7563,-0.7563,-0.7563,-0.7569,-0.757,-0.757,0,0,0,0,0,0,-0.7648,-0.7636,-0.7633,-0.7629,-0.7622,-0.7612,-0.7611,-0.7606,-0.76,-0.76,-0.7592,-0.759,-0.7585,-0.758,-0.7581,-0.7572,-0.7571,-0.757,-0.7576,-0.7576,-0.7576,-0.7577,-0.7576,0,0,0,0,0,-0.7649,-0.7644,-0.7634,-0.7631,-0.7628,-0.762,-0.7617,-0.7612,-0.7605,-0.7602,-0.7596,-0.7589,-0.7583,-0.7579,-0.7573,-0.7569,-0.7566,-0.7567,-0.7567,-0.7567,-0.7567,-0.7563,-0.7563,-0.7563,-0.7563,-0.7563,0,0,-0.7652,-0.7645,-0.7643,-0.7633,-0.7627,-0.7622,-0.7618,-0.7613,-0.7609,-0.7602,-0.7595,-0.759,-0.7582,-0.7576,-0.7574,-0.7572,-0.7566,-0.7567,-0.7568,-0.7567,-0.7563,-0.7563,-0.7563,-0.7563,-0.7563,-0.7563,0,0,-0.7654,-0.7649,-0.7645,-0.764,-0.7631,-0.7625,-0.7624,-0.7615,-0.7611,-0.7605,-0.7599,-0.7594,-0.7584,-0.7578,-0.7574,-0.7572,-0.7568,-0.7571,-0.7572,-0.7568,-0.7568,-0.7568,-0.7567,-0.7567,-0.757,-0.757,-0.757,0,-0.7659,-0.7651,-0.7644,-0.7639,-0.7634,-0.7627,-0.7623,-0.7618,-0.7608,-0.7605,-0.7604,-0.759,-0.7584,-0.7576,-0.7576,-0.7573,-0.7571,-0.7572,-0.7569,-0.7569,-0.7569,-0.7567,-0.7567,-0.7571,-0.7571,-0.7571,-0.7571,0,-0.7657,-0.7651,-0.7649,-0.7639,-0.7634,-0.763,-0.7621,-0.7617,-0.7613,-0.7607,-0.76,-0.7593,-0.7584,-0.7582,-0.7578,-0.7573,-0.7573,-0.757,-0.7568,-0.7569,-0.7567,-0.7567,-0.7571,-0.7571,-0.7571,-0.7571,0,0,-0.7665,-0.765,-0.7649,-0.7644,-0.7634,-0.7629,-0.7624,-0.7615,-0.7612,-0.7605,-0.76,-0.7591,-0.7588,-0.7583,-0.7578,-0.7575,-0.7573,-0.7573,-0.7572,-0.7572,-0.7566,-0.7568,-0.7567,-0.757,-0.757,-0.757,-0.7566,0,-0.7665,-0.7655,-0.7648,-0.7641,-0.7635,-0.7627,-0.7623,-0.7615,-0.7609,-0.7603,-0.7597,-0.759,-0.7588,-0.7585,-0.7581,-0.7574,-0.7571,-0.7574,-0.7565,-0.7564,-0.7566,-0.7567,-0.7568,-0.7565,-0.7566,-0.7566,-0.7566,0,-0.7665,-0.7657,-0.7649,-0.7638,-0.7635,-0.7631,-0.7622,-0.7617,-0.7608,-0.7604,-0.7598,-0.7592,-0.7586,-0.7584,-0.7575,-0.7576,-0.7572,-0.7568,-0.7568,-0.7566,-0.7565,-0.7564,-0.7565,-0.7564,-0.7565,-0.7565,-0.7565,0,-0.767,-0.7658,-0.7652,-0.7648,-0.7635,-0.7632,-0.7626,-0.7618,-0.7613,-0.7605,-0.7601,-0.7593,-0.7588,-0.7582,-0.7574,-0.7574,-0.7564,-0.7563,-0.756,-0.756,-0.7559,-0.7559,-0.7557,-0.7557,-0.7557,-0.7557,-0.7557,0,-0.7671,-0.7666,-0.7654,-0.765,-0.7644,-0.7635,-0.7629,-0.7623,-0.7615,-0.7609,-0.7603,-0.7597,-0.7587,-0.758,-0.7574,-0.7566,-0.7565,-0.7561,-0.7559,-0.7561,-0.7561,-0.7558,-0.7558,-0.7557,-0.7557,-0.7557,-0.7557,0,-0.7676,-0.7668,-0.766,-0.7648,-0.7645,-0.7641,-0.7631,-0.7626,-0.7619,-0.7612,-0.761,-0.7599,-0.7591,-0.7582,-0.7571,-0.7567,-0.7559,-0.7557,-0.7562,-0.7561,-0.7559,-0.7559,-0.7554,-0.7553,-0.7554,-0.7554,-0.7554,0,-0.7677,-0.7673,-0.7661,-0.7656,-0.765,-0.7643,-0.7638,-0.7629,-0.7624,-0.7613,-0.7609,-0.76,-0.7592,-0.7579,-0.757,-0.7561,-0.7559,-0.7558,-0.7557,-0.7559,-0.7558,-0.7558,-0.7557,-0.7558,-0.7558,-0.7558,-0.7558,0,-0.7679,-0.7675,-0.7668,-0.7658,-0.7652,-0.7644,-0.7637,-0.7633,-0.7623,-0.7617,-0.7608,-0.7602,-0.759,-0.758,-0.757,-0.7564,-0.7559,-0.7558,-0.7557,-0.7559,-0.7562,-0.7559,-0.7562,-0.7558,-0.7558,-0.7558,-0.7558,-0.7558,-0.7682,-0.7677,-0.7668,-0.7659,-0.7652,-0.7645,-0.7639,-0.7632,-0.7624,-0.7613,-0.7609,-0.7599,-0.7589,-0.7575,-0.7569,-0.7561,-0.756,-0.7559,-0.7558,-0.7558,-0.7558,-0.7563,-0.7559,-0.7559,-0.7559,-0.7559,-0.7559,0,-0.7683,-0.7676,-0.7668,-0.7657,-0.765,-0.7646,-0.7637,-0.7631,-0.7623,-0.7614,-0.7606,-0.7595,-0.7586,-0.7576,-0.7566,-0.7562,-0.7559,-0.7559,-0.7559,-0.7558,-0.756,-0.7561,-0.7562,-0.7562,-0.7562,-0.7562,-0.7562,-0.7562,-0.7683,-0.7675,-0.7669,-0.7657,-0.765,-0.7641,-0.7636,-0.7628,-0.7621,-0.7609,-0.7601,-0.7595,-0.7585,-0.7574,-0.7565,-0.7563,-0.7559,-0.756,-0.7556,-0.7558,-0.7558,-0.7558,-0.7559,-0.7559,-0.7559,-0.7555,-0.7555,-0.7555]},{"header":{"parameterUnit":"m.s-1","parameterCategory":1,"la1":30.2991,"la2":30.254,"lo1":-89.0895,"lo2":-89.0444,"dy":0.0017,"dx":0.0017,"nx":28,"ny":28,"refTime":"2026-02-07T03:00:00:Z","depth":0,"parameterNumber":3,"parameterNumberName":"V-component_of_WINDS"},"data":[0,0,0,0,0,0,0,0,0,0,0,0,0,0,0,0,0,0,0,0,0,0,0,0,0,0,0,0,0,0,0,0,0,0,0,0,0,0,0,0,0,0,0,0,0,0,0,0,0,0,0,0,0,0,0,0,0,0,1.5648,1.5649,0,1.5738,1.5739,1.574,1.5755,1.5754,1.5754,1.5753,1.5844,1.5847,1.585,0,0,0,0,0,0,0,0,0,0,0,0,0,1.5491,1.5494,1.5648,1.5649,1.565,1.5737,1.5739,1.574,1.5755,1.5754,1.5753,1.5753,1.5843,1.5847,1.5851,0,0,0,0,0,0,0,0,0,0,0,0,0,1.5568,1.5495,1.5648,1.5668,1.5671,1.5737,1.5739,1.574,1.5755,1.5754,1.5753,1.5752,1.5842,1.5846,1.5851,1.5903,0,0,1.5865,1.5867,0,0,0,0,0,0,0,0,1.5563,1.5573,1.5664,1.5667,1.567,1.5734,1.5717,1.5795,1.5756,1.5723,1.5753,1.5752,1.5808,1.5816,1.5835,1.5907,1.5911,1.5866,1.5869,1.5871,1.5872,0,0,0,0,0,0,0,1.5558,1.557,1.5683,1.5666,1.5669,1.5673,1.5683,1.5732,1.5771,1.5726,1.5728,1.5738,1.581,1.583,1.5837,1.5912,1.5866,1.587,1.5873,1.5875,1.6033,1.6034,0,0,0,0,0,0,1.5549,1.5565,1.5681,1.5686,1.5613,1.5677,1.5688,1.5715,1.5771,1.5778,1.5739,1.5738,1.5823,1.5832,1.5841,1.5906,1.5871,1.5875,1.5878,1.6031,1.6033,1.6034,0,0,0,0,0,0,1.5545,1.5559,1.5677,1.5626,1.5641,1.5681,1.5711,1.5717,1.5738,1.578,1.5787,1.5753,1.5822,1.5834,1.5888,1.5909,1.5877,1.5881,1.603,1.6032,1.6034,1.6036,0,0,0,0,0,0,1.5541,1.5558,1.5577,1.5626,1.5644,1.5722,1.5712,1.572,1.5746,1.5746,1.5795,1.5802,1.5822,1.588,1.5892,1.5915,1.5885,1.6028,1.6031,1.6033,1.6034,1.6038,1.6041,0,0,0,0,0,1.5535,1.5574,1.5578,1.5592,1.567,1.5723,1.5734,1.5756,1.5747,1.5768,1.5796,1.5801,1.5905,1.5886,1.5899,1.5924,1.6027,1.603,1.6033,1.6033,1.6037,1.6041,0,0,0,0,0,0,1.5526,1.5581,1.5586,1.5642,1.5678,1.5726,1.5752,1.576,1.5799,1.5798,1.5824,1.5835,1.5888,1.5911,1.5889,1.5977,1.5965,1.5971,1.596,1.5965,1.5968,1.5962,1.5889,0,0,0,0,0,1.5531,1.557,1.5615,1.566,1.5678,1.5712,1.5736,1.5751,1.5789,1.5805,1.5836,1.5873,1.5914,1.5941,1.5981,1.6038,1.6049,1.6061,1.6065,1.6067,1.6072,1.6105,1.6112,1.6045,1.6045,1.6045,0,0,1.5541,1.5575,1.5598,1.566,1.5689,1.573,1.5725,1.5767,1.5798,1.5811,1.5864,1.5888,1.5931,1.5987,1.6013,1.6008,1.6093,1.6071,1.6073,1.6077,1.6109,1.6116,1.6121,1.6047,1.6046,1.6046,0,0,1.5579,1.5609,1.565,1.568,1.5726,1.5748,1.5758,1.5805,1.5822,1.5876,1.5887,1.5923,1.5994,1.6024,1.6049,1.6101,1.6107,1.6113,1.6131,1.6163,1.6169,1.6174,1.6193,1.62,1.6118,1.6118,1.6118,0,1.5586,1.5647,1.5671,1.5713,1.574,1.5755,1.5797,1.5825,1.5881,1.59,1.5893,1.5983,1.6013,1.6076,1.6089,1.6108,1.6121,1.6108,1.6166,1.6171,1.6176,1.6195,1.6202,1.6118,1.6118,1.6118,1.6118,0,1.5653,1.5696,1.5724,1.5778,1.5808,1.585,1.5881,1.5909,1.5921,1.5944,1.5999,1.6036,1.6085,1.6101,1.6112,1.6167,1.6162,1.6161,1.6149,1.6182,1.6201,1.6208,1.6119,1.6119,1.6119,1.6119,0,0,1.5689,1.5756,1.5766,1.5792,1.5843,1.5877,1.592,1.5968,1.5992,1.603,1.6068,1.6127,1.6126,1.6155,1.617,1.6198,1.6239,1.6193,1.6195,1.6201,1.6302,1.6304,1.6312,1.6243,1.6244,1.6246,1.6299,0,1.5734,1.5812,1.5835,1.5901,1.5941,1.5956,1.5994,1.603,1.6053,1.6091,1.6116,1.6159,1.6154,1.6171,1.6199,1.6228,1.6259,1.6224,1.6279,1.6281,1.6269,1.6321,1.6323,1.6371,1.6306,1.6307,1.6308,0,1.5798,1.5838,1.5908,1.5956,1.5973,1.6007,1.6054,1.6089,1.613,1.6146,1.6178,1.6191,1.6238,1.6223,1.6288,1.6264,1.6288,1.6305,1.6307,1.6314,1.6297,1.633,1.6387,1.6395,1.6319,1.6319,1.6318,0,1.5818,1.589,1.5941,1.5962,1.6019,1.6042,1.6067,1.6107,1.6135,1.6176,1.6194,1.6239,1.6264,1.6299,1.6325,1.6312,1.6389,1.6376,1.6403,1.6403,1.6419,1.6418,1.6482,1.6433,1.6433,1.6432,1.6432,0,1.5868,1.591,1.5951,1.5983,1.6032,1.6058,1.6105,1.613,1.6166,1.6204,1.6219,1.6253,1.6285,1.6324,1.6344,1.6396,1.6407,1.6421,1.6426,1.642,1.6419,1.6437,1.6434,1.6434,1.6434,1.6434,1.6433,0,1.5899,1.5928,1.5985,1.6034,1.6048,1.6081,1.6123,1.6155,1.6179,1.6226,1.6239,1.6277,1.6324,1.6353,1.6412,1.6426,1.6483,1.6486,1.6469,1.6472,1.6498,1.6496,1.6577,1.6589,1.6531,1.6531,1.6532,0,1.5929,1.5962,1.6015,1.6041,1.6066,1.6108,1.6137,1.6164,1.6193,1.6244,1.627,1.6318,1.6358,1.6432,1.6465,1.6511,1.6516,1.6541,1.6523,1.6517,1.6518,1.6516,1.652,1.6545,1.6545,1.6545,1.6546,0,1.5979,1.5992,1.6033,1.608,1.6113,1.6151,1.6189,1.6209,1.6243,1.6276,1.6324,1.6355,1.6417,1.6465,1.6514,1.6539,1.6549,1.6551,1.656,1.6555,1.6544,1.6552,1.6479,1.6549,1.6549,1.6549,1.6549,1.6548,1.6012,1.6042,1.6085,1.613,1.6161,1.6197,1.6229,1.6258,1.6299,1.6351,1.6364,1.6416,1.6457,1.6524,1.6551,1.6592,1.6588,1.6601,1.6604,1.6607,1.6609,1.6537,1.6601,1.6601,1.6601,1.66,1.66,0,1.6064,1.6092,1.6134,1.6186,1.6222,1.6228,1.627,1.63,1.6345,1.6383,1.6422,1.6479,1.6526,1.6563,1.6611,1.6637,1.6642,1.6648,1.6647,1.6653,1.6608,1.6596,1.6643,1.6643,1.6643,1.6643,1.6643,1.6643,1.6096,1.6148,1.6167,1.6236,1.6264,1.6314,1.6338,1.6371,1.6401,1.6464,1.6503,1.6527,1.6565,1.6616,1.666,1.667,1.6687,1.6693,1.6704,1.6661,1.6656,1.6652,1.6641,1.6696,1.6696,1.6745,1.6746,1.6746]}]]